GSAT-16

Last updated on Tue Sep 22 2026 00:03:13 GMT+0000 (Coordinated Universal Time)

1 40332U 14078A 26264.57131772 .00000081 00000+0 00000+0 0 9992 2 40332 0.0188 166.7794 0005697 309.4595 144.9855 1.00271749 43085
UTC large
Height (km)
Speed (km/s)
/
Latitude / Longitude
Inclination (degrees)
Orbital Period (minutes)
Azimuth
Elevation
Range (km)
Doppler Factor

Next 0 passes for location: London (51.5072 / 0.1276)

No passes found over London.
GSAT-16